This is the latest recevied weather packets stored in our database for station/object AB8Y-13. If no packets are shown the sender has not sent any weather packets the latest 10 day(s).
| Time | Temp. | Humidity | Pressure | Rain* | Wind** | Luminosity | Snow |
|---|---|---|---|---|---|---|---|
| 1777642140 | 6.67° C | 66% | 1015.1 hPa | 0 mm | - | 304 W/m² | - |
| 1777641836 | 6.67° C | 68% | 1015 hPa | 0 mm | - | 284 W/m² | - |
| 1777641532 | 6.11° C | 68% | 1014.9 hPa | 0 mm | - | 302 W/m² | - |
| 1777641227 | 6.11° C | 69% | 1014.9 hPa | 0 mm | - | 276 W/m² | - |
| 1777640924 | 6.11° C | 71% | 1015 hPa | 0 mm | - | 279 W/m² | - |
| 1777640621 | 5.56° C | 73% | 1014.9 hPa | 0 mm | - | 326 W/m² | - |
| 1777640316 | 5.56° C | 72% | 1015 hPa | 0 mm | - | 326 W/m² | - |
| 1777640013 | 5.56° C | 71% | 1014.8 hPa | 0 mm | - | 220 W/m² | - |
| 1777639710 | 5.56° C | 72% | 1014.9 hPa | 0 mm | - | 279 W/m² | - |
| 1777639409 | 5.56° C | 75% | 1015 hPa | 0 mm | - | 213 W/m² | - |
| 1777639108 | 5.56° C | 73% | 1014.8 hPa | 0 mm | - | 259 W/m² | - |
| 1777638807 | 5.56° C | 74% | 1014.8 hPa | 0 mm | - | 207 W/m² | - |
| 1777638507 | 5.56° C | 75% | 1014.8 hPa | 0 mm | - | 240 W/m² | - |
| 1777638204 | 5.56° C | 78% | 1014.7 hPa | 0 mm | - | 209 W/m² | - |
| 1777637900 | 5° C | 79% | 1014.7 hPa | 0 mm | - | 146 W/m² | - |
| 1777637596 | 5° C | 79% | 1014.8 hPa | 0 mm | - | 131 W/m² | - |
| 1777637293 | 4.44° C | 85% | 1014.7 hPa | 0 mm | - | 114 W/m² | - |
| 1777636990 | 3.89° C | 86% | 1014.6 hPa | 0 mm | - | 118 W/m² | - |
| 1777636685 | 3.89° C | 89% | 1014.7 hPa | 0 mm | - | 102 W/m² | - |
| 1777636383 | 3.89° C | 93% | 1014.6 hPa | 0 mm | - | 110 W/m² | - |
| 1777636082 | 3.33° C | 95% | 1014.8 hPa | 0 mm | - | 81 W/m² | - |
| 1777635778 | 3.33° C | 96% | 1014.6 hPa | 0 mm | - | 78 W/m² | - |
| 1777635475 | 2.78° C | 97% | 1014.7 hPa | 0 mm | - | 88 W/m² | - |
| 1777635172 | 2.78° C | 97% | 1014.7 hPa | 0 mm | - | 64 W/m² | - |
| 1777634868 | 2.22° C | 97% | 1014.5 hPa | 0 mm | - | 59 W/m² | - |
* Rain latest hour (hover to see other rain measurements)
** Current wind speed in m/s (hover to see current wind gust speed)